Back to catalog

SL-12 R/B(2)

AliveGEO
NORAD 14086·ROCKET BODY·🇷🇺 Russia

Launched Mar 12, 1983 from Baikonur Cosmodrome

Loading…

TLE

FreshSource: Space-Track

Epoch: Sep 14, 2026, 13:24 UTC

1 14086U 83016F   26257.55869831 -.00000001  00000-0  00000-0 0  9996
2 14086   6.3982 296.1448 0016776 326.9796 150.4310  1.01101368123878

Track SL-12 R/B(2) in real time with AllMySat

Download on the App Store